[[{"header":{"parameterUnit":"m.s-1","parameterCategory":1,"la1":30.2991,"la2":30.254,"lo1":-89.0895,"lo2":-89.0444,"dy":0.0017,"dx":0.0017,"nx":28,"ny":28,"refTime":"2023-09-22T21:00:00:Z","depth":0,"parameterNumber":2,"parameterNumberName":"U-component_of_WINDS"},"data":[0,0,0,0,0,0,0,0,0,0,0,0,0,0,0,0,0,0,0,0,0,0,0,0,0,0,0,0,0,0,0,0,0,0,0,0,0,0,0,0,0,0,0,0,0,0,0,0,0,0,0,0,0,0,0,0,0,0,-2.0648,-2.0649,0,-2.0686,-2.0687,-2.0687,-2.0639,-2.0638,-2.0636,-2.0634,-2.0671,-2.0674,-2.0676,0,0,0,0,0,0,0,0,0,0,0,0,0,-2.0533,-2.0536,-2.0648,-2.0649,-2.0649,-2.0686,-2.0687,-2.0687,-2.064,-2.0638,-2.0635,-2.0633,-2.067,-2.0674,-2.0677,0,0,0,0,0,0,0,0,0,0,0,0,0,-2.0578,-2.0536,-2.0648,-2.063,-2.0629,-2.0686,-2.0687,-2.0688,-2.064,-2.0637,-2.0635,-2.0632,-2.0669,-2.0673,-2.0677,-2.0754,0,0,-2.0689,-2.0691,0,0,0,0,0,0,0,0,-2.0576,-2.0583,-2.0632,-2.0631,-2.063,-2.0656,-2.066,-2.071,-2.0641,-2.0636,-2.0634,-2.0631,-2.0668,-2.0672,-2.0685,-2.0756,-2.0757,-2.0689,-2.0692,-2.0694,-2.0695,0,0,0,0,0,0,0,-2.0573,-2.0581,-2.0663,-2.0633,-2.0632,-2.062,-2.0623,-2.0669,-2.0666,-2.0636,-2.0633,-2.0638,-2.0667,-2.0681,-2.0685,-2.0758,-2.0689,-2.0693,-2.0695,-2.0697,-2.0894,-2.0896,0,0,0,0,0,0,-2.0572,-2.0579,-2.0662,-2.0665,-2.0596,-2.0624,-2.0628,-2.065,-2.0665,-2.0665,-2.064,-2.0636,-2.0676,-2.0681,-2.0686,-2.0777,-2.0693,-2.0697,-2.0699,-2.0891,-2.0894,-2.0897,0,0,0,0,0,0,-2.057,-2.058,-2.0661,-2.0621,-2.063,-2.0629,-2.0654,-2.0652,-2.0666,-2.0669,-2.0668,-2.0655,-2.0674,-2.0681,-2.0738,-2.0777,-2.0699,-2.0703,-2.0887,-2.0892,-2.0896,-2.0959,0,0,0,0,0,0,-2.0567,-2.058,-2.0609,-2.0622,-2.0632,-2.0712,-2.0656,-2.0655,-2.0673,-2.0668,-2.0682,-2.0682,-2.0672,-2.0732,-2.0742,-2.0781,-2.0706,-2.0884,-2.0889,-2.0895,-2.0953,-2.0965,-2.0975,0,0,0,0,0,-2.0563,-2.0624,-2.061,-2.0621,-2.0669,-2.0714,-2.072,-2.0708,-2.0677,-2.0706,-2.0708,-2.0682,-2.0772,-2.0738,-2.0749,-2.079,-2.0881,-2.0888,-2.0894,-2.0948,-2.0962,-2.0974,0,0,0,0,0,0,-2.0615,-2.0626,-2.061,-2.0678,-2.0696,-2.0706,-2.0742,-2.0723,-2.0749,-2.0743,-2.0726,-2.073,-2.079,-2.0796,-2.0758,-2.0866,-2.0821,-2.083,-2.0859,-2.0873,-2.0883,-2.088,-2.0709,0,0,0,0,0,-2.0635,-2.0671,-2.0678,-2.0737,-2.0747,-2.0744,-2.0763,-2.0752,-2.0769,-2.0776,-2.0782,-2.0799,-2.0831,-2.0852,-2.0882,-2.0955,-2.0957,-2.0988,-2.0999,-2.1008,-2.1015,-2.1054,-2.1068,-2.0919,-2.0919,-2.0919,0,0,-2.0675,-2.0686,-2.0709,-2.0748,-2.076,-2.0798,-2.075,-2.0791,-2.0819,-2.0782,-2.0835,-2.0841,-2.0859,-2.0924,-2.0953,-2.0931,-2.1058,-2.1016,-2.1023,-2.1026,-2.1062,-2.1076,-2.1089,-2.0923,-2.0922,-2.0922,0,0,-2.0767,-2.078,-2.083,-2.0844,-2.0863,-2.0861,-2.0873,-2.0887,-2.0889,-2.0943,-2.0917,-2.0949,-2.1005,-2.1019,-2.1033,-2.1134,-2.1111,-2.1144,-2.1199,-2.1237,-2.1249,-2.1259,-2.1294,-2.1307,-2.1152,-2.1152,-2.1152,0,-2.0815,-2.087,-2.0858,-2.0902,-2.092,-2.089,-2.094,-2.0954,-2.0982,-2.0995,-2.0971,-2.1041,-2.1051,-2.1119,-2.1143,-2.1156,-2.1169,-2.1141,-2.1248,-2.1259,-2.1268,-2.1301,-2.1314,-2.1156,-2.1155,-2.1155,-2.1154,0,-2.0927,-2.0967,-2.1005,-2.1034,-2.1056,-2.1104,-2.1098,-2.1122,-2.111,-2.111,-2.1166,-2.1178,-2.1209,-2.1225,-2.1213,-2.1292,-2.1277,-2.1251,-2.1206,-2.1286,-2.1317,-2.133,-2.1161,-2.116,-2.1158,-2.1158,0,0,-2.1051,-2.1075,-2.1089,-2.1102,-2.1122,-2.1152,-2.1198,-2.123,-2.1251,-2.1272,-2.1309,-2.1359,-2.1335,-2.1351,-2.1341,-2.1375,-2.1453,-2.1344,-2.1344,-2.1363,-2.1539,-2.1558,-2.1572,-2.1439,-2.1441,-2.1443,-2.1537,0,-2.1143,-2.1223,-2.1214,-2.129,-2.1326,-2.1299,-2.1339,-2.1356,-2.1358,-2.1389,-2.1391,-2.1425,-2.1392,-2.1402,-2.1434,-2.1436,-2.1488,-2.143,-2.1473,-2.1474,-2.1467,-2.1589,-2.1608,-2.1696,-2.1549,-2.1551,-2.1553,0,-2.126,-2.1287,-2.1367,-2.1382,-2.1397,-2.1433,-2.1462,-2.1492,-2.1511,-2.151,-2.1529,-2.1514,-2.156,-2.1516,-2.1579,-2.154,-2.1557,-2.1562,-2.1565,-2.1567,-2.1517,-2.1593,-2.1724,-2.1737,-2.1572,-2.157,-2.1569,0,-2.1341,-2.1397,-2.1452,-2.1464,-2.1484,-2.151,-2.1519,-2.1536,-2.1556,-2.1581,-2.1594,-2.1625,-2.1641,-2.1665,-2.1658,-2.1627,-2.1723,-2.1678,-2.1722,-2.1723,-2.1742,-2.174,-2.1877,-2.1756,-2.1756,-2.1756,-2.1755,0,-2.1444,-2.1493,-2.1489,-2.1522,-2.1577,-2.1567,-2.1622,-2.1628,-2.1643,-2.1677,-2.1656,-2.1689,-2.1678,-2.1711,-2.1706,-2.1759,-2.1766,-2.1767,-2.1764,-2.1767,-2.1767,-2.1777,-2.177,-2.1759,-2.1758,-2.1758,-2.1757,0,-2.1543,-2.1542,-2.16,-2.1615,-2.162,-2.1659,-2.1672,-2.1703,-2.1705,-2.1748,-2.1758,-2.1759,-2.1796,-2.1793,-2.1834,-2.183,-2.1896,-2.1887,-2.1889,-2.1887,-2.1931,-2.1926,-2.2077,-2.2096,-2.1965,-2.1966,-2.1967,0,-2.1607,-2.1645,-2.1664,-2.1686,-2.1698,-2.1733,-2.1754,-2.1745,-2.1768,-2.1793,-2.1822,-2.1857,-2.1884,-2.1944,-2.1949,-2.1981,-2.1972,-2.2022,-2.1976,-2.1978,-2.1971,-2.1968,-2.1972,-2.2031,-2.2032,-2.2033,-2.2034,0,-2.1721,-2.1719,-2.175,-2.1782,-2.1807,-2.1831,-2.1853,-2.1872,-2.1866,-2.1892,-2.193,-2.1952,-2.1995,-2.203,-2.206,-2.2069,-2.2051,-2.2049,-2.2061,-2.2064,-2.2063,-2.2063,-2.1913,-2.2045,-2.2044,-2.2043,-2.2043,-2.2042,-2.1804,-2.1836,-2.1855,-2.1891,-2.1907,-2.1928,-2.1959,-2.1964,-2.1996,-2.203,-2.2024,-2.2066,-2.2085,-2.2124,-2.2137,-2.217,-2.2151,-2.2168,-2.2173,-2.2177,-2.2181,-2.206,-2.2175,-2.2175,-2.2175,-2.2175,-2.2174,0,-2.1916,-2.1928,-2.196,-2.1992,-2.202,-2.2002,-2.2026,-2.205,-2.2088,-2.2107,-2.2135,-2.2179,-2.2214,-2.2222,-2.2255,-2.228,-2.2272,-2.2288,-2.2286,-2.2288,-2.2196,-2.2182,-2.2294,-2.2294,-2.2294,-2.2294,-2.2294,-2.2294,-2.1978,-2.2031,-2.2032,-2.2094,-2.2105,-2.2146,-2.2161,-2.2181,-2.2197,-2.2247,-2.2275,-2.2281,-2.2296,-2.233,-2.2361,-2.2363,-2.2375,-2.2395,-2.2393,-2.2306,-2.2294,-2.2283,-2.227,-2.2398,-2.2398,-2.2481,-2.2482,-2.2483]},{"header":{"parameterUnit":"m.s-1","parameterCategory":1,"la1":30.2991,"la2":30.254,"lo1":-89.0895,"lo2":-89.0444,"dy":0.0017,"dx":0.0017,"nx":28,"ny":28,"refTime":"2023-09-22T21:00:00:Z","depth":0,"parameterNumber":3,"parameterNumberName":"V-component_of_WINDS"},"data":[0,0,0,0,0,0,0,0,0,0,0,0,0,0,0,0,0,0,0,0,0,0,0,0,0,0,0,0,0,0,0,0,0,0,0,0,0,0,0,0,0,0,0,0,0,0,0,0,0,0,0,0,0,0,0,0,0,0,-0.5204,-0.5204,0,-0.5262,-0.5262,-0.5263,-0.5287,-0.5287,-0.5287,-0.5287,-0.5347,-0.5349,-0.5351,0,0,0,0,0,0,0,0,0,0,0,0,0,-0.5115,-0.5117,-0.5204,-0.5204,-0.5205,-0.5262,-0.5262,-0.5263,-0.5287,-0.5287,-0.5287,-0.5287,-0.5347,-0.5349,-0.5351,0,0,0,0,0,0,0,0,0,0,0,0,0,-0.5161,-0.5117,-0.5204,-0.5224,-0.5226,-0.5261,-0.5262,-0.5263,-0.5287,-0.5287,-0.5287,-0.5287,-0.5346,-0.5349,-0.5351,-0.5371,0,0,-0.5359,-0.536,0,0,0,0,0,0,0,0,-0.5159,-0.5165,-0.522,-0.5222,-0.5225,-0.5267,-0.5253,-0.53,-0.5287,-0.5264,-0.5287,-0.5286,-0.5321,-0.5326,-0.5337,-0.5374,-0.5376,-0.5359,-0.5361,-0.5362,-0.5363,0,0,0,0,0,0,0,-0.5155,-0.5162,-0.5227,-0.5221,-0.5224,-0.523,-0.5237,-0.5262,-0.5293,-0.5266,-0.5268,-0.5274,-0.5322,-0.5334,-0.5339,-0.5377,-0.5359,-0.5362,-0.5363,-0.5364,-0.5434,-0.5434,0,0,0,0,0,0,-0.5149,-0.5159,-0.5225,-0.5228,-0.5191,-0.5232,-0.5239,-0.5254,-0.5293,-0.5298,-0.5274,-0.5275,-0.533,-0.5335,-0.5341,-0.5367,-0.5362,-0.5365,-0.5366,-0.5434,-0.5434,-0.5434,0,0,0,0,0,0,-0.5147,-0.5154,-0.5222,-0.5194,-0.5204,-0.5234,-0.525,-0.5255,-0.5267,-0.5299,-0.5305,-0.5281,-0.533,-0.5337,-0.5363,-0.5369,-0.5366,-0.5368,-0.5433,-0.5434,-0.5434,-0.5419,0,0,0,0,0,0,-0.5144,-0.5153,-0.5161,-0.5194,-0.5205,-0.5244,-0.525,-0.5256,-0.5271,-0.5273,-0.5307,-0.5312,-0.533,-0.5359,-0.5366,-0.5373,-0.537,-0.5433,-0.5434,-0.5434,-0.5419,-0.5419,-0.5418,0,0,0,0,0,-0.5141,-0.5154,-0.5161,-0.5169,-0.5215,-0.5244,-0.525,-0.527,-0.5272,-0.528,-0.53,-0.5311,-0.5367,-0.5362,-0.5369,-0.5377,-0.5433,-0.5433,-0.5434,-0.5419,-0.5419,-0.5418,0,0,0,0,0,0,-0.5121,-0.5159,-0.5167,-0.5192,-0.5214,-0.5248,-0.5259,-0.5269,-0.5292,-0.5293,-0.5318,-0.5325,-0.5349,-0.5366,-0.5359,-0.5399,-0.5401,-0.5403,-0.5387,-0.5387,-0.5387,-0.5382,-0.5372,0,0,0,0,0,-0.512,-0.514,-0.5172,-0.5191,-0.5202,-0.5228,-0.5241,-0.5255,-0.528,-0.529,-0.5312,-0.5336,-0.5359,-0.5374,-0.5397,-0.5421,-0.5429,-0.543,-0.543,-0.543,-0.5431,-0.5446,-0.5447,-0.5437,-0.5437,-0.5437,0,0,-0.5117,-0.514,-0.5151,-0.5187,-0.5206,-0.5227,-0.5236,-0.5257,-0.5273,-0.5293,-0.5319,-0.5336,-0.5365,-0.539,-0.5403,-0.5405,-0.5436,-0.543,-0.543,-0.5432,-0.5447,-0.5448,-0.5449,-0.5437,-0.5437,-0.5437,0,0,-0.5123,-0.5142,-0.516,-0.5179,-0.5207,-0.5225,-0.5229,-0.5261,-0.5273,-0.53,-0.5315,-0.5334,-0.5374,-0.5393,-0.5408,-0.5421,-0.5432,-0.5428,-0.5427,-0.5441,-0.5442,-0.5443,-0.5448,-0.5449,-0.543,-0.543,-0.543,0,-0.5116,-0.5147,-0.5168,-0.5188,-0.5204,-0.5222,-0.5241,-0.5258,-0.5293,-0.5304,-0.5306,-0.5355,-0.5376,-0.5406,-0.5409,-0.5421,-0.5427,-0.5425,-0.544,-0.5441,-0.5442,-0.5447,-0.5449,-0.5429,-0.5429,-0.5429,-0.5429,0,-0.5137,-0.5158,-0.517,-0.5202,-0.5219,-0.5239,-0.5263,-0.5278,-0.529,-0.5307,-0.5334,-0.5359,-0.5388,-0.5396,-0.5408,-0.5429,-0.5429,-0.5435,-0.5438,-0.5442,-0.5447,-0.545,-0.5428,-0.5428,-0.5429,-0.5429,0,0,-0.5132,-0.5176,-0.518,-0.5195,-0.5228,-0.5245,-0.5266,-0.5293,-0.5306,-0.5329,-0.5347,-0.538,-0.5386,-0.5403,-0.5418,-0.543,-0.5439,-0.5434,-0.5436,-0.5435,-0.5464,-0.5459,-0.5461,-0.5446,-0.5447,-0.5447,-0.5461,0,-0.5142,-0.5179,-0.5199,-0.5228,-0.5248,-0.5266,-0.5284,-0.5307,-0.5324,-0.5344,-0.5363,-0.5386,-0.5391,-0.5402,-0.5414,-0.5435,-0.5445,-0.5434,-0.5464,-0.5465,-0.5457,-0.5464,-0.5459,-0.5471,-0.5463,-0.5464,-0.5464,0,-0.5159,-0.5182,-0.5213,-0.5244,-0.5253,-0.5269,-0.5296,-0.5315,-0.5341,-0.5352,-0.5371,-0.5386,-0.5409,-0.541,-0.5442,-0.5434,-0.5448,-0.546,-0.5461,-0.5465,-0.5465,-0.5468,-0.5476,-0.5478,-0.5468,-0.5467,-0.5467,0,-0.5153,-0.5192,-0.5215,-0.5228,-0.5264,-0.5275,-0.5291,-0.5317,-0.5332,-0.5356,-0.5366,-0.5392,-0.5407,-0.5427,-0.5448,-0.5447,-0.5479,-0.5481,-0.5489,-0.5489,-0.5496,-0.5495,-0.5505,-0.5503,-0.5503,-0.5503,-0.5503,0,-0.5163,-0.5181,-0.5213,-0.5228,-0.5249,-0.5271,-0.5292,-0.5309,-0.5332,-0.535,-0.5368,-0.5385,-0.5412,-0.5433,-0.545,-0.5474,-0.548,-0.5491,-0.5495,-0.5489,-0.5488,-0.5499,-0.5499,-0.5504,-0.5504,-0.5504,-0.5503,0,-0.516,-0.5182,-0.5209,-0.5241,-0.5249,-0.5264,-0.5292,-0.5307,-0.5324,-0.5348,-0.5355,-0.5383,-0.5408,-0.5431,-0.5465,-0.5476,-0.5501,-0.5507,-0.5492,-0.5495,-0.5502,-0.5501,-0.552,-0.5524,-0.5518,-0.5519,-0.5519,0,-0.5165,-0.5179,-0.5213,-0.5226,-0.5242,-0.5263,-0.5279,-0.5302,-0.5317,-0.5348,-0.536,-0.5386,-0.5409,-0.5449,-0.5472,-0.5498,-0.5505,-0.551,-0.5509,-0.5503,-0.5506,-0.5505,-0.5506,-0.5509,-0.5509,-0.5509,-0.5509,0,-0.5171,-0.5181,-0.5203,-0.5229,-0.5247,-0.5268,-0.529,-0.5301,-0.5328,-0.5345,-0.537,-0.5388,-0.5422,-0.5449,-0.5477,-0.5494,-0.5507,-0.5509,-0.5513,-0.5507,-0.5499,-0.5504,-0.5492,-0.5509,-0.5509,-0.5509,-0.5509,-0.5509,-0.5173,-0.5187,-0.5212,-0.5236,-0.5255,-0.5275,-0.5291,-0.5311,-0.5333,-0.5362,-0.5374,-0.5401,-0.5427,-0.5467,-0.5484,-0.5505,-0.5508,-0.5512,-0.5514,-0.5514,-0.5514,-0.5495,-0.551,-0.551,-0.551,-0.551,-0.551,0,-0.5181,-0.5198,-0.522,-0.525,-0.5269,-0.5278,-0.5303,-0.5318,-0.5341,-0.5364,-0.5386,-0.5416,-0.5442,-0.5467,-0.5494,-0.5507,-0.5513,-0.5513,-0.5513,-0.5517,-0.551,-0.5504,-0.5508,-0.5508,-0.5508,-0.5508,-0.5508,-0.5508,-0.5187,-0.5211,-0.5224,-0.5258,-0.5276,-0.5301,-0.5315,-0.5334,-0.5352,-0.5385,-0.5406,-0.5422,-0.5447,-0.5476,-0.55,-0.5507,-0.5517,-0.5515,-0.5524,-0.5517,-0.5517,-0.5517,-0.5512,-0.5517,-0.5517,-0.5529,-0.5529,-0.5529]}]]